Kodiak, AK

6:49 AM AKST on February 08, 2016 (GMT -0900)
Kodiak

Weather History for PADQ - November, 2011

Change the Weather History Date:

Thursday, November 17, 2011

  Actual Average Record
Temperature  
Mean Temperature 24 °F 34 °F  
Max Temperature 28 °F 39 °F 52 °F (1990)
Min Temperature 20 °F 28 °F 15 °F (2009)
Degree Days  
Heating Degree Days 41 32  
Month to date heating degree days 549 512  
Since 1 July heating degree days 2349 2370  
Cooling Degree Days 0    
Month to date cooling degree days 0  
Year to date cooling degree days 0  
Moisture  
Dew Point 7 °F    
Average Humidity 0    
Maximum Humidity 0    
Minimum Humidity 0    
Precipitation  
Precipitation 0.00 in 0.21 in 1.69 in (1975)
Month to date precipitation 2.12 3.78  
Year to date precipitation 62.20 66.18  
Snow  
Snow 0.00 in 0.20 in 4.20 in (1975)
Month to date snowfall 12.4 2.5  
Since 1 July snowfall 12.4 3.6  
Since 1 September snowfall 12.4 3.6  
Snow Depth 5.00 in    
Sea Level Pressure  
Sea Level Pressure 30.05 in    
Wind  
Wind Speed 10 mph (WNW)    
Max Wind Speed 24 mph    
Max Gust Speed 32 mph    
Visibility 10 miles    
Events      
T = Trace of Precipitation, MM = Missing Value Source: NWS Daily Summary

Daily Weather History Graph

Daily Weather History Graph

Search for Another Location

Airport or City:

Trip Planner

Search our weather history database for the weather conditions in past years. The results will help you decide how hot, cold, wet, or windy it might be!

Date:

Astronomy

Nov. 17, 2011 Rise Set
Actual Time 8:59 AM AKST 4:49 PM AKST
Civil Twilight 8:14 AM AKST 5:35 PM AKST
Nautical Twilight 7:25 AM AKST 6:23 PM AKST
Astronomical Twilight 6:39 AM AKST 7:09 PM AKST
Moon 11:54 PM AKST (11/17) 1:47 PM AKST (11/17)
Length of Visible Light 9h 20m
Length of Day
7h 50m
Waning Gibbous, 58% of the Moon is Illuminated
Nov 17
Waning Gibbous
Nov 18
Last Quarter
Nov 24
New
Dec 2
First Quarter
Dec 10
Full

Hourly Weather History & Observations

Time (AKST) Temp. Windchill Dew Point Humidity Pressure Visibility Wind Dir Wind Speed Gust Speed Precip Events Conditions
12:53 AM 21.9 °F 11.0 °F 7.0 °F 53% 29.93 in 10.0 mi WNW 10.4 mph 28.8 mph N/A   Clear
1:53 AM 23.0 °F 10.1 °F 6.1 °F 48% 29.93 in 10.0 mi WNW 15.0 mph 25.3 mph N/A   Clear
3:53 AM 23.0 °F 10.1 °F 6.1 °F 48% 29.93 in 10.0 mi West 15.0 mph 27.6 mph N/A   Clear
4:53 AM 23.0 °F 10.6 °F 6.1 °F 48% 29.96 in 10.0 mi West 13.8 mph 26.5 mph N/A   Clear
5:53 AM 23.0 °F 14.7 °F 5.0 °F 46% 29.97 in 10.0 mi Variable 6.9 mph - N/A   Clear
6:53 AM 21.9 °F 11.0 °F 3.9 °F 46% 29.99 in 10.0 mi West 10.4 mph 17.3 mph N/A   Clear
7:53 AM 23.0 °F 14.7 °F 5.0 °F 46% 30.01 in 10.0 mi NW 6.9 mph - N/A   Partly Cloudy
8:53 AM 23.0 °F 15.8 °F 3.9 °F 44% 30.04 in 10.0 mi Variable 5.8 mph - N/A   Clear
9:53 AM 23.0 °F 13.1 °F 6.1 °F 48% 30.04 in 10.0 mi WNW 9.2 mph - N/A   Partly Cloudy
10:53 AM 24.1 °F 13.1 °F 5.0 °F 44% 30.07 in 10.0 mi West 11.5 mph 16.1 mph N/A   Scattered Clouds
11:53 AM 26.1 °F 12.3 °F 5.0 °F 41% 30.07 in 10.0 mi WNW 19.6 mph 29.9 mph N/A   Scattered Clouds
12:53 PM 27.0 °F 14.3 °F 7.0 °F 43% 30.07 in 10.0 mi WNW 17.3 mph - N/A   Scattered Clouds
1:53 PM 28.0 °F 17.5 °F 6.1 °F 39% 30.08 in 10.0 mi WNW 12.7 mph 21.9 mph N/A   Scattered Clouds
2:53 PM 28.0 °F 20.8 °F 5.0 °F 38% 30.09 in 10.0 mi NW 6.9 mph - N/A   Scattered Clouds
3:53 PM 27.0 °F 16.7 °F 7.0 °F 43% 30.11 in 10.0 mi West 11.5 mph - N/A   Scattered Clouds
4:53 PM 26.1 °F 19.4 °F 7.0 °F 44% 30.13 in 9.0 mi NW 5.8 mph - N/A   Scattered Clouds
5:53 PM 24.1 °F 13.7 °F 7.0 °F 48% 30.12 in 4.0 mi NW 10.4 mph - N/A   Scattered Clouds
6:53 PM 25.0 °F 15.5 °F 7.0 °F 46% 30.10 in 9.0 mi NW 9.2 mph - N/A   Scattered Clouds
7:53 PM 24.1 °F 16.0 °F 10.0 °F 55% 30.10 in 10.0 mi NW 6.9 mph - N/A   Scattered Clouds
8:53 PM 21.9 °F - 10.9 °F 63% 30.09 in 10.0 mi Calm Calm - N/A   Mostly Cloudy
9:53 PM 21.9 °F 11.7 °F 12.9 °F 68% 30.09 in 10.0 mi West 9.2 mph - N/A   Overcast
10:53 PM 24.1 °F - 10.9 °F 57% 30.10 in 10.0 mi Calm Calm - N/A   Overcast
11:53 PM 23.0 °F 15.8 °F 12.9 °F 65% 30.06 in 10.0 mi West 5.8 mph - N/A   Overcast